Location: Mercogliano
(40.9167°N, 14.7333°E)
Time: 21:54:33
(UTC+00:00)

CZ-2C R/B - Pass Details

Date: 16 January 2021
Orbit: 785 x 870 km, 98.2° (Epoch: 06 March)

Event Time Altitude Azimuth Distance (km) Brightness Sun altitude
Exits shadow 17:20:43 23° 79° (E) 1,759 3.7 -15.2°
Maximum altitude 17:21:36 24° 93° (E) 1,722 3.7 -15.4°
Drops below altitude 10° 17:25:59 10° 146° (SE) 2,499 4.9 -16.2°
Sets 17:28:51 0° 160° (SSE) 3,438 5.8 -16.7°
